Hourly Data Report for July 17, 2021

WINDSOR A
ONTARIO
Current Station Operator: NAVCAN

42°16'34.000" N
82°57'19.000" W
189.60 m
6139530
71538
YQG

Download Data

Hourly Data (July 2021)
Hourly Data Report for July 17, 2021
TIME
LST
Temp Definition
°C
Dew Point Definition
°C
Rel Hum Definition
%
Precip. Amount Definition
mm

Wind Dir Definition
10's deg

Wind Spd Definition
km/h
Visibility Definition
km
Stn Press Definition
kPa
Hmdx Definition


Wind Chill Definition


Weather Definition


00:00 19.8 19.3 97 1.0 8 9 12.9 99.42     Rain
01:00 19.8 19.5 98 1.2 7 13 11.3 99.35     Rain
02:00 19.6 19.3 98 0.8 5 15 11.3 99.32     Rain
03:00 19.3 18.8 97 0.8 5 17 14.5 99.34     Rain
04:00 19.1 18.6 97 1.5 4 11 9.7 99.34     Rain, Fog
05:00 18.3 17.8 97 2.0 4 18 9.7 99.37     Rain, Fog
06:00 18.6 18.3 98 0.8 4 13 11.3 99.39     Rain
07:00 19.0 18.7 98 0.5 36 13 16.1 99.46     Rain
08:00 18.4 17.9 97 0.0 1 13 6.4 99.50     Fog
09:00 18.9 17.8 93 0.0 3 22 16.1 99.57     LegendNANA
10:00 20.1 17.9 87 0.0 3 22 16.1 99.61 26   LegendNANA
11:00 21.0 17.6 81 0.0 4 28 16.1 99.64 27   LegendNANA
12:00 22.1 18.2 78 0.0 5 18 16.1 99.64 28   LegendNANA
13:00 23.8 18.4 72 0.0 3 22 16.1 99.62 30   LegendNANA
14:00 24.6 18.3 67 0.0 3 17 16.1 99.62 31   LegendNANA
15:00 25.2 18.0 64 0.0 4 18 16.1 99.63 31   LegendNANA
16:00 25.3 17.5 61 0.0 3 21 16.1 99.65 31   LegendNANA
17:00 25.2 18.2 65 0.0 5 13 16.1 99.67 31   LegendNANA
18:00 24.3 17.7 66 0.0 4 17 16.1 99.66 30   LegendNANA
19:00 23.4 17.6 69 0.0 5 15 16.1 99.69 29   LegendNANA
20:00 21.8 17.0 74 0.0 5 13 16.1 99.72 27   LegendNANA
21:00 20.1 17.6 85 0.0 3 9 16.1 99.78 26   LegendNANA
22:00 19.5 18.0 91 0.0 4 5 16.1 99.82     LegendNANA
23:00 20.0 16.9 82 0.0 35 8 16.1 99.85 25   LegendNANA

Notes on Data Quality.

Legend

  • E = Estimated
  • M = Missing
  • NA = Not Available*
  • [empty] = Indicates an unobserved value
Date modified: